Flag for Germany Weather past 2 weeks in Bernau bei Berlin, Brandenburg, Germany

Now
44 °F

Light rain. Overcast.


Feels Like: 42 °F
Forecast: 43 / 53 °F
Wind: 5 mph from South

Location: Berlin-Tegel

Current Time: Mar 29, 2015 at 12:49:35 AM

Latest Report: Mar 29, 2015 at 12:00 AM


Visibility: 19 mi

Pressure: 29.83 "Hg

Humidity: 68%

Dew point: 34 °F

Location of Bernau bei BerlinLocation

Historic Weather in Bernau bei Berlin — Graph

°F

Bernau bei Berlin temperature yesterday

Maximum temperature yesterday: 49 °F (at 5:00 PM)
Minimum temperature yesterday: 42 °F (at 6:00 AM)
Average temperature yesterday: 45 °F

Past Weeks' High & Low Weather Summary

 TemperatureHumidityPressure
High62 °F (Mar 17, 4:00 PM)97% (Mar 21, 6:00 AM)30.50 "Hg (Mar 21, 6:00 AM)
Low28 °F (Mar 20, 6:00 AM)17% (Mar 18, 2:00 PM)29.64 "Hg (Mar 26, 4:00 AM)
Average45 °F67%30.15 "Hg
* Reported Mar 13 11:00 PM — Mar 28 11:00 PM, Bernau bei Berlin, Weather by CustomWeather, © 2015

Note: Actual official high and low records may vary slightly from our data, if they occured in-between our weather recording intervals... More about our weather records

Advertising

Bernau bei Berlin weather history for previous 24 hours

 ConditionsComfort  
Time TempWeatherWind HumidityBarometerVisibility
11:00 PM
Sat, Mar 28
45 °FLight rain. Overcast.5 mph59%29.87 "Hg19 mi
10:00 PM45 °FLight rain. Overcast.6 mph59%29.90 "Hg19 mi
9:00 PM46 °FOvercast.6 mph55%29.92 "Hg19 mi
8:00 PM45 °FPassing clouds.5 mph55%29.95 "Hg19 mi
7:00 PM46 °FPassing clouds.3 mph50%29.97 "Hg19 mi
6:00 PM48 °FPassing clouds.5 mph48%29.99 "Hg19 mi
5:00 PM49 °FPartly sunny.6 mph50%30.00 "Hg19 mi
4:00 PM48 °FPartly sunny.5 mph54%30.03 "Hg19 mi
3:00 PM49 °FOvercast.N/A55%30.05 "Hg16 mi
2:00 PM48 °FOvercast.3 mph62%30.08 "Hg16 mi
1:00 PM46 °FOvercast.3 mph73%30.11 "Hg12 mi
12:00 PM45 °FOvercast.3 mph80%30.12 "Hg9 mi
11:00 AM44 °FOvercast.3 mph81%30.14 "Hg7 mi
10:00 AM44 °FOvercast.3 mph86%30.16 "Hg5 mi
9:00 AM43 °FFog.3 mph90%30.16 "Hg4 mi
8:00 AM42 °FFog.3 mph91%30.16 "Hg4 mi
7:00 AM42 °FLow clouds.3 mph93%30.15 "Hg3 mi
6:00 AM42 °FFog.3 mph94%30.14 "Hg4 mi
4:00 AM43 °FLight rain. Overcast.5 mph93%30.11 "Hg6 mi
3:00 AM43 °FOvercast.5 mph90%30.10 "Hg14 mi
2:00 AM43 °FOvercast.5 mph92%30.09 "Hg12 mi
1:00 AM44 °FLight rain. Overcast.5 mph93%30.08 "Hg11 mi
12:00 AM43 °FOvercast.5 mph93%30.07 "Hg14 mi
Weather by CustomWeather, © 2015

See weather overviewHow to use our weather pages